Location: Zilina
(0.0000°N, 18.7333°E)
Time: 12:04:43
(UTC+01:00)

SJ 16-02 - Pass Details

Date: 19 February 2019
Orbit: 606 x 617 km, 75.0° (Epoch: 19 March)

Event Time Altitude Azimuth Distance (km) Brightness Sun altitude
Rises 18:15:48 0° 7° (N) 2,867 4.6 -4.1°
Reaches altitude 10° 18:18:15 10° 18° (NNE) 1,967 3.7 -4.7°
Maximum altitude 18:22:05 29° 79° (ENE) 1,127 2.2 -5.7°
Drops below altitude 10° 18:25:55 10° 139° (SE) 1,977 3.7 -6.6°
Sets 18:28:23 0° 150° (SSE) 2,885 4.6 -7.2°
